Date String (YYYY-MM-DD hh:mm:ss) UTC,Instrument flags,absolute air pressure of the measurement (hPa),sample flow rate (lpm),inlet stack bypass flow (lpm),air temperature of the measurement (°C),ambient temperature measured by the external sensor (°C),aerosol sample conditioner tube jacket temperature (°C),OPC LED temperature (°C),internal box temperature (°C),relative humidity of the measurement (%),span deviation,mass concentration of particles derived from Lorenz-Mie calculation of OPC scattering (μg/m³),mass concentration of particles derived from Lorenz-Mie calculation of OPC scattering (μg/m³),mass concentration of particles derived from Lorenz-Mie calculation of OPC scattering (μg/m³)
DateTimeUTC,F1_M11,P_M11,Q1_M11,Q2_M11,T1_M11,T2_M11,T3_M11,T4_M11,T5_M11,U1_M11,ZSPAN_M11,X0_M11,X2_M11,X1_M11
2024-03-27 06:00:00,SystemResetWarning,0823.4,4.99,000.00,018.2,017.2,000.0,026.9,020.0,18.1,0000.0,0008.59,0005.79,0005.40
2024-03-27 06:01:00,SystemResetWarning,0823.4,5.01,000.00,018.2,017.2,000.0,026.9,020.0,18.1,0000.0,0008.52,0005.61,0005.22
2024-03-27 06:02:00,SystemResetWarning,0823.3,5.00,000.00,018.2,017.2,000.0,026.9,020.0,18.1,0000.0,0008.32,0005.46,0005.08
2024-03-27 06:03:00,SystemResetWarning,0823.4,5.00,000.00,018.2,017.2,000.0,026.9,020.0,18.2,0000.0,0008.26,0005.36,0004.97
2024-03-27 06:04:00,SystemResetWarning,0823.4,5.01,000.00,018.2,017.2,000.0,026.9,020.0,18.3,0001.3,0008.18,0005.29,0004.90
2024-03-27 06:05:00,SystemResetWarning,0823.3,5.00,000.00,018.2,017.2,000.0,026.9,020.0,18.4,0000.1,0008.13,0005.24,0004.86
2024-03-27 06:06:00,SystemResetWarning,0823.4,5.00,000.00,018.2,017.2,000.0,026.9,020.0,18.3,0000.0,0008.10,0005.18,0004.82
2024-03-27 06:07:00,SystemResetWarning,0823.3,5.00,000.00,018.2,017.2,000.0,026.9,020.0,18.1,0000.1,0008.73,0005.15,0004.79
2024-03-27 06:08:00,SystemResetWarning,0823.4,5.00,000.00,018.2,017.2,000.0,026.9,020.0,18.1,0000.5,0008.81,0005.12,0004.78
2024-03-27 06:09:00,SystemResetWarning,0823.4,5.00,000.00,018.2,017.1,000.0,027.0,020.0,17.9,0000.0,0008.92,0005.15,0004.77
2024-03-27 06:10:00,SystemResetWarning,0823.4,5.00,000.00,018.2,017.1,000.0,027.0,020.0,17.8,0000.0,0008.95,0005.14,0004.76
2024-03-27 06:11:00,SystemResetWarning,0823.4,4.99,000.00,018.2,017.1,000.0,027.0,020.0,17.8,0000.0,0008.99,0005.15,0004.77
2024-03-27 06:12:00,SystemResetWarning,0823.4,5.00,000.00,018.2,017.1,000.0,027.0,020.0,17.9,0000.0,0008.84,0005.14,0004.78
2024-03-27 06:13:00,SystemResetWarning,0823.4,5.00,000.00,018.2,017.1,000.0,027.0,020.0,17.9,0000.0,0008.89,0005.17,0004.79
2024-03-27 06:14:00,SystemResetWarning,0823.4,5.00,000.00,018.2,017.1,000.0,027.0,020.0,17.8,0000.0,0008.78,0005.13,0004.76
2024-03-27 06:15:00,SystemResetWarning,0823.4,5.00,000.00,018.1,017.1,000.0,027.0,020.0,17.5,0000.0,0008.61,0005.04,0004.67
2024-03-27 06:16:00,SystemResetWarning,0823.4,5.01,000.00,018.2,017.6,000.0,027.1,020.2,17.4,0000.0,0008.48,0004.93,0004.57
2024-03-27 06:17:00,SystemResetWarning,0823.4,5.01,000.00,018.4,018.4,000.0,027.1,020.6,17.4,0000.0,0008.38,0004.87,0004.50
2024-03-27 06:18:00,SystemResetWarning,0823.4,5.00,000.00,018.6,018.7,000.0,027.1,020.8,17.3,0000.0,0007.63,0004.83,0004.48
2024-03-27 06:19:00,SystemResetWarning,0823.4,4.99,000.00,018.6,018.6,000.0,027.0,020.7,17.5,0000.0,0007.49,0004.85,0004.47
2024-03-27 06:20:00,SystemResetWarning,0823.4,5.01,000.00,018.6,018.4,000.0,027.0,020.5,17.5,0000.0,0007.49,0004.87,0004.48
2024-03-27 06:21:00,SystemResetWarning,0823.3,5.01,000.00,018.6,018.2,000.0,027.0,020.4,17.5,0000.0,0007.67,0004.92,0004.52
2024-03-27 06:22:00,SystemResetWarning,0823.4,5.00,000.00,018.5,018.0,000.0,027.0,020.3,17.7,0000.0,0008.55,0004.98,0004.56
2024-03-27 06:23:00,SystemResetWarning,0823.4,4.99,000.00,018.5,017.9,000.0,027.0,020.2,17.7,0000.0,0008.64,0005.04,0004.60
2024-03-27 06:24:00,SystemResetWarning,0823.4,4.99,000.00,018.4,017.8,000.0,027.0,020.2,17.4,0000.0,0008.71,0005.10,0004.65
2024-03-27 06:25:00,SystemResetWarning,0823.4,5.01,000.00,018.4,017.7,000.0,027.0,020.1,17.6,0000.0,0009.09,0005.19,0004.70
2024-03-27 06:26:00,SystemResetWarning,0823.4,5.00,000.00,018.4,017.6,000.0,027.0,020.0,17.9,0000.0,0009.49,0005.29,0004.78
2024-03-27 06:27:00,SystemResetWarning,0823.4,5.00,000.00,018.3,017.5,000.0,027.0,020.0,18.2,0000.0,0009.65,0005.40,0004.90
2024-03-27 06:28:00,SystemResetWarning,0823.4,5.00,000.00,018.3,017.4,000.0,027.0,020.0,18.4,0000.3,0010.09,0005.56,0005.04
2024-03-27 06:29:00,SystemResetWarning,0823.4,5.00,000.00,018.3,017.3,000.0,027.0,020.0,18.5,0000.9,0010.29,0005.71,0005.16
2024-03-27 06:30:00,SystemResetWarning,0823.4,4.98,000.00,018.3,017.3,000.0,027.0,020.0,18.4,0000.0,0010.25,0005.71,0005.20
2024-03-27 06:31:00,SystemResetWarning,0823.4,4.99,000.00,018.2,017.2,000.0,027.0,020.0,18.2,-000.1,0010.24,0005.72,0005.23
2024-03-27 06:32:00,SystemResetWarning,0823.4,5.01,000.00,018.2,017.2,000.0,027.0,020.0,18.0,0000.5,0010.28,0005.76,0005.26
2024-03-27 06:33:00,SystemResetWarning,0823.4,5.00,000.00,018.2,017.2,000.0,027.0,020.0,17.7,0000.9,0009.42,0005.76,0005.27
2024-03-27 06:34:00,SystemResetWarning,0823.4,5.01,000.00,018.2,017.1,000.0,027.0,020.0,17.4,0001.2,0009.50,0005.81,0005.31
2024-03-27 06:35:00,SystemResetWarning,0823.4,5.01,000.00,018.2,017.1,000.0,027.0,020.0,17.4,0001.7,0009.47,0005.80,0005.31
2024-03-27 06:36:00,SystemResetWarning,0823.4,5.00,000.00,018.2,017.1,000.0,027.0,020.0,17.2,0001.9,0009.23,0005.74,0005.29
2024-03-27 06:37:00,SystemResetWarning,0823.4,4.99,000.00,018.2,017.1,000.0,027.0,020.0,17.0,0001.5,0008.73,0005.65,0005.24
2024-03-27 06:38:00,SystemResetWarning,0823.3,5.00,000.00,018.2,017.1,000.0,027.0,020.0,16.9,0001.5,0008.62,0005.51,0005.09
2024-03-27 06:39:00,SystemResetWarning,0823.3,5.00,000.00,018.2,017.5,000.0,027.1,020.2,17.2,0000.0,0008.08,0005.32,0004.92
2024-03-27 06:40:00,SystemResetWarning,0823.4,5.01,000.00,018.4,018.4,000.0,027.2,020.7,16.9,0000.0,0007.91,0005.12,0004.73
2024-03-27 06:41:00,SystemResetWarning,0823.4,4.99,000.00,018.7,019.1,000.0,027.2,021.0,16.2,0000.0,0007.79,0004.94,0004.53
2024-03-27 06:42:00,SystemResetWarning,0823.4,4.99,000.00,018.8,019.0,000.0,027.1,020.9,15.7,0000.0,0007.71,0004.80,0004.38
2024-03-27 06:43:00,SystemResetWarning,0823.3,5.00,000.00,018.8,018.7,000.0,027.1,020.8,15.7,0000.0,0007.55,0004.64,0004.21
2024-03-27 06:44:00,SystemResetWarning,0823.3,5.00,000.00,018.7,018.5,000.0,027.1,020.6,15.7,0000.0,0007.46,0004.52,0004.09
2024-03-27 06:45:00,SystemResetWarning,0823.4,5.00,000.00,018.7,018.3,000.0,027.1,020.5,15.7,0000.0,0007.24,0004.37,0003.96
2024-03-27 06:46:00,SystemResetWarning,0823.3,5.00,000.00,018.7,018.2,000.0,027.1,020.4,16.0,0000.0,0007.14,0004.32,0003.91
2024-03-27 06:47:00,SystemResetWarning,0823.4,5.00,000.00,018.6,018.0,000.0,027.1,020.3,16.4,0000.0,0007.30,0004.42,0004.01
2024-03-27 06:48:00,SystemResetWarning,0823.4,5.00,000.00,018.6,017.9,000.0,027.1,020.3,16.8,0002.4,0007.60,0004.67,0004.25
2024-03-27 06:49:00,SystemResetWarning,0823.4,5.00,000.00,018.5,017.8,000.0,027.1,020.2,17.0,0003.0,0007.98,0005.04,0004.59
2024-03-27 06:50:00,SystemResetWarning,0823.4,5.00,000.00,018.5,017.7,000.0,027.1,020.2,17.2,0002.9,0008.34,0005.41,0004.96
2024-03-27 06:51:00,SystemResetWarning,0823.4,5.00,000.00,018.5,017.6,000.0,027.1,020.1,17.4,0002.4,0008.70,0005.80,0005.37
2024-03-27 06:52:00,SystemResetWarning,0823.4,5.00,000.00,018.4,017.5,000.0,027.1,020.1,16.4,0001.9,0008.79,0005.95,0005.53
2024-03-27 06:53:00,SystemResetWarning,0823.4,5.00,000.00,018.4,017.5,000.0,027.1,020.0,15.8,0001.6,0008.78,0005.95,0005.52
2024-03-27 06:54:00,SystemResetWarning,0823.4,5.01,000.00,018.4,017.4,000.0,027.1,020.0,15.8,0001.5,0008.94,0005.94,0005.53
2024-03-27 06:55:00,SystemResetWarning,0823.4,5.00,000.00,018.3,017.4,000.0,027.1,020.0,15.9,0001.4,0009.20,0005.93,0005.55
2024-03-27 06:56:00,SystemResetWarning,0823.4,5.00,000.00,018.3,017.3,000.0,027.1,020.0,16.0,0001.7,0009.16,0005.91,0005.54
2024-03-27 06:57:00,SystemResetWarning,0823.4,5.00,000.00,018.3,017.3,000.0,027.1,020.0,16.3,0001.8,0009.48,0005.75,0005.38
2024-03-27 06:58:00,SystemResetWarning,0823.4,5.00,000.00,018.3,017.3,000.0,027.1,020.0,16.5,0001.4,0009.38,0005.48,0005.10
2024-03-27 06:59:00,SystemResetWarning,0823.4,5.00,000.00,018.3,017.3,000.0,027.0,020.0,16.1,0000.7,0008.99,0005.14,0004.74
